This is the latest recevied weather packets stored in our database for station/object KD8NVS-13. If no packets are shown the sender has not sent any weather packets the latest 10 day(s).
| Time | Temp. | Humidity | Pressure | Rain* | Wind** | Luminosity | Snow |
|---|---|---|---|---|---|---|---|
| 1777513854 | 12.78° C | 80% | 1001.8 hPa | 0 mm | - | 0 W/m² | - |
| 1777513551 | 12.78° C | 80% | 1001.8 hPa | 0 mm | - | 0 W/m² | - |
| 1777513247 | 12.78° C | 80% | 1001.8 hPa | 0 mm | - | 0 W/m² | - |
| 1777512943 | 12.78° C | 80% | 1001.8 hPa | 0 mm | - | 0 W/m² | - |
| 1777512640 | 12.78° C | 81% | 1001.8 hPa | 0 mm | - | 0 W/m² | - |
| 1777512337 | 12.78° C | 84% | 1001.5 hPa | 0 mm | - | 0 W/m² | - |
| 1777512033 | 13.33° C | 84% | 1001.5 hPa | 0 mm | - | 0 W/m² | - |
| 1777511732 | 13.33° C | 84% | 1001.5 hPa | 0 mm | - | 0 W/m² | - |
| 1777511429 | 13.33° C | 85% | 1001.5 hPa | 0 mm | - | 0 W/m² | - |
| 1777511126 | 13.33° C | 84% | 1001.1 hPa | 0 mm | - | 0 W/m² | - |
| 1777510821 | 13.33° C | 84% | 1001.1 hPa | 0 mm | - | 0 W/m² | - |
| 1777510518 | 13.33° C | 86% | 1001.1 hPa | 0 mm | - | 0 W/m² | - |
| 1777510215 | 13.33° C | 86% | 1001.1 hPa | 0 mm | - | 0 W/m² | - |
| 1777509911 | 13.89° C | 84% | 1001.1 hPa | 0 mm | - | 0 W/m² | - |
| 1777509607 | 14.44° C | 74% | 1000.8 hPa | 0 mm | - | 0 W/m² | - |
| 1777509304 | 14.44° C | 73% | 1000.8 hPa | 0 mm | - | 1 W/m² | - |
| 1777509001 | 14.44° C | 74% | 1000.8 hPa | 0 mm | - | 2 W/m² | - |
| 1777508698 | 14.44° C | 75% | 1000.8 hPa | 0 mm | - | 2 W/m² | - |
| 1777508395 | 14.44° C | 75% | 1000.8 hPa | 0 mm | - | 4 W/m² | - |
| 1777508092 | 14.44° C | 74% | 1000.8 hPa | 0 mm | - | 6 W/m² | - |
| 1777507789 | 15° C | 72% | 1000.5 hPa | 0 mm | - | 9 W/m² | - |
| 1777507485 | 15° C | 72% | 1000.5 hPa | 0 mm | - | 14 W/m² | - |
| 1777507182 | 15° C | 71% | 1000.5 hPa | 0 mm | - | 18 W/m² | - |
| 1777506880 | 15.56° C | 71% | 1000.5 hPa | 0 mm | - | 23 W/m² | - |
| 1777506577 | 15.56° C | 72% | 1000.5 hPa | 0 mm | - | 28 W/m² | - |
* Rain latest hour (hover to see other rain measurements)
** Current wind speed in m/s (hover to see current wind gust speed)